www.pogodaiklimat.ru

Погода и климат >> Архив погоды >> Кувейт >> Эль-Джахра


ПОГОДА в Эль-Джахра

  • Прогноз погоды в Эль-Джахра
  • Монитор погоды в Эль-Джахра

АРХИВ ПОГОДЫ в Эль-Джахра

Время (UTC), дата Ветер
(напр.,м/с)
 
Видим.   Явления Облачность Т
(С)
Тd
(С)
f
(%)
Тe
(С)
Тes
(С)
Комфортность P
(гПа)
Po
(гПа)
Тmin
(С)
Tmax
(С)
R
(мм)
R24
(мм)
S
(см)
06 19.08 З 2-4
{6}
н/о н/о +40.8 +5.8 12 +38 +38 очень
жарко
1004.6 998.6
09 19.08 СЗ 2-5
{6}
н/о н/о +43.4 +4.6 10 +41 +41 опасность
перегрева
1003.8 997.9
12 19.08 С 3-7
{9}
н/о н/о +44.8 +2.6 8 +42 +42 опасность
перегрева
1002.4 996.5
15 19.08 СЗ 3-6
{8}
н/о н/о +43.4 +0.6 7 +40 +40 очень
жарко
1003.0 997.1
18 19.08 СЗ 1-1
{8}
н/о н/о +38.3 +2.0 10 +35 +35 очень
жарко
1004.9 998.9
21 19.08 С 1-3
{3}
н/о н/о +36.4 +3.3 13 +33 +33 жарко 1004.2 998.1 +30.9 +46.1
00 20.08 Ю 2-2
{3}
н/о н/о +31.1 +2.6 16 +29 +29 жарко 1003.8 997.6
03 20.08 ЮЗ 2-2
{2}
н/о н/о +31.0 +3.3 17 +29 +29 жарко 1004.9 998.7
06 20.08 В 1-1
{3}
н/о н/о +41.4 +5.4 11 +38 +38 очень
жарко
1005.6 999.6
09 20.08 В 1-3
{6}
н/о н/о +44.6 +4.5 9 +42 +42 опасность
перегрева
1004.7 998.8
12 20.08 СЗ 2-5
{8}
н/о н/о +46.3 -0.4 6 +43 +43 опасность
перегрева
1002.9 997.0
15 20.08 СЗ 2-4
{7}
н/о н/о +44.3 -1.2 6 +40 +40 очень
жарко
1002.7 996.8
18 20.08 СВ 1-1
{7}
н/о н/о +38.2 +6.6 15 +36 +36 очень
жарко
1003.8 997.8
21 20.08 ЮЗ 2-2
{3}
н/о н/о +33.9 -0.3 11 +30 +30 жарко 1003.7 997.6 +29.9 +47.1
00 21.08 З 2-2
{3}
н/о н/о +34.4 +1.8 13 +31 +31 жарко 1003.4 997.3
03 21.08 Ю 1-2
{3}
н/о н/о +33.2 +2.9 15 +30 +30 жарко 1003.8 997.7
06 21.08 СЗ 2-4
{4}
н/о н/о +40.5 +4.0 11 +37 +37 очень
жарко
1004.6 998.6
09 21.08 З 2-5
{6}
н/о н/о +47.0 +1.4 6 +43 +43 опасность
перегрева
1003.0 997.1
12 21.08 СЗ 3-6
{8}
н/о н/о +47.8 -6.0 4 +43 +43 опасность
перегрева
1001.3 995.5
15 21.08 З 2-4
{7}
н/о н/о +45.6 -3.9 5 +42 +42 опасность
перегрева
1000.9 995.0
18 21.08 СЗ 1-5
{7}
н/о н/о +41.3 -2.0 7 +37 +37 очень
жарко
1002.1 996.1
21 21.08 СЗ 3-5
{5}
н/о н/о +39.5 -0.2 8 +36 +36 очень
жарко
1001.8 995.8 +32.5 +49.0
00 22.08 СЗ 3-7
{8}
н/о н/о +36.5 +2.4 12 +33 +33 жарко 1001.9 995.8
03 22.08 З 3-6
{8}
н/о н/о +34.6 +6.2 17 +32 +32 жарко 1002.8 996.7
06 22.08 СЗ 2-5
{8}
н/о н/о +39.8 +6.0 13 +37 +37 очень
жарко
1003.4 997.4
09 22.08 СЗ 3-7
{9}
н/о н/о +45.0 +3.2 8 +42 +42 опасность
перегрева
1001.6 995.7
12 22.08 З 3-8
{10}
н/о н/о +46.9 -0.3 6 +43 +43 опасность
перегрева
1000.5 994.6
15 22.08 З 4-7
{10}
н/о н/о +44.3 -0.4 6 +40 +40 очень
жарко
1000.2 994.3
18 22.08 З 2-4
{10}
н/о н/о +39.2 -3.2 7 +35 +35 очень
жарко
1001.9 995.9
21 22.08 З 4-9
{10}
н/о н/о +37.3 +3.7 12 +34 +34 очень
жарко
1002.0 996.0 +34.4 +47.7
00 23.08 З 4-8
{10}
н/о н/о +34.8 +3.3 14 +32 +32 жарко 1001.8 995.7
03 23.08 З 3-6
{9}
н/о н/о +32.6 +4.2 17 +30 +30 жарко 1002.6 996.5
06 23.08 СЗ 3-6
{9}
н/о н/о +38.2 +4.2 12 +35 +35 очень
жарко
1003.7 997.7
09 23.08 СЗ 3-7
{9}
н/о н/о +45.3 -0.8 6 +41 +41 опасность
перегрева
1001.8 995.9
12 23.08 С 4-6
{9}
н/о н/о +46.7 -6.9 3 +42 +42 опасность
перегрева
1000.6 994.7
15 23.08 СЗ 2-5
{8}
н/о н/о +45.2 -5.6 4 +41 +41 опасность
перегрева
1000.5 994.6
18 23.08 Ю 1-2
{8}
н/о н/о +36.7 +14.5 27 +38 +38 очень
душно
1002.4 996.3
21 23.08 З 4-7
{7}
н/о н/о +37.3 +2.4 11 +34 +34 очень
жарко
1002.1 996.1 +32.4 +48.1
00 24.08 З 1-4
{8}
н/о н/о +34.4 +3.5 14 +31 +31 жарко 1002.4 996.3
03 24.08 С 2-4
{5}
н/о н/о +32.5 +5.3 18 +30 +30 жарко 1003.7 997.5
06 24.08 СВ 4-6
{6}
н/о н/о +36.5 +19.0 36 +41 +41 опасность
перегрева
1004.6 998.5
09 24.08 В 4-7
{7}
н/о н/о +43.1 +19.0 25 +47 +47 опасность
перегрева
1003.0 997.1
12 24.08 С 5-8
{9}
н/о н/о +40.0 +25.2 43 +53 +53 опасность
перегрева
1002.2 996.2
15 24.08 ЮВ 2-5
{7}
н/о н/о +40.2 +14.6 22 +41 +41 опасность
перегрева
1002.2 996.2
18 24.08 ЮВ 2-4
{7}
н/о н/о +36.0 +20.1 40 +42 +42 опасность
перегрева
1003.3 997.2
21 24.08 З 1-2
{4}
н/о н/о +34.0 +21.9 49 +42 +42 опасность
перегрева
1002.7 996.6 +32.4 +45.0
00 25.08 Ю 2-3
{7}
н/о н/о +31.2 +22.8 61 +41 +41 опасность
перегрева
1003.1 996.9
03 25.08 ЮВ 2-4
{4}
н/о н/о +30.2 +21.5 60 +38 +38 очень
душно
1003.8 997.6
06 25.08 ЮЗ 2-4
{4}
н/о н/о +39.5 +16.3 26 +42 +42 опасность
перегрева
1004.0 998.0
09 25.08 ЮВ 1-3
{5}
н/о н/о +46.1 +9.1 11 +44 +44 опасность
перегрева
1002.2 996.3
12 25.08 В 1-2
{6}
н/о н/о +47.5 +4.4 8 +45 +45 опасность
перегрева
1000.6 994.8
15 25.08 ЮВ 4-6
{8}
н/о н/о +42.7 +9.3 14 +41 +41 опасность
перегрева
1000.4 994.5
18 25.08 В 1-2
{8}
н/о н/о +38.3 +8.7 17 +37 +37 очень
жарко
1002.2 996.2
21 25.08 З 2-3
{5}
н/о н/о +35.8 +7.5 18 +34 +34 очень
жарко
1001.6 995.5 +30.1 +49.0
00 26.08 ЮЗ 1-3
{6}
н/о н/о +34.2 +7.8 20 +33 +33 жарко 1001.3 995.2

 

Местоположение метеостанции Эль-Джахра (Кувейт): широта 29.32 долгота 47.67 высота над уровнем моря 55 м.

В архиве по умолчанию представлена погода в Эль-Джахра за последнюю неделю. Архивные данные за месяц целиком и за предыдущие месяцы, начиная с января 2011 года, Вы можете получить, выбрав интересующий диапазон дат из раскрывающегося списка и нажав кнопку "Ввод!".


*Определитесь, кто Вы:
робот инопланетянин человек

Внимание! Время в таблицах - всемирное. Для получения местного времени необходимо прибавить поправку, которая равна 3 ч.

Смотрите также архив погоды в соседних городах и на ближайших метеорологических станциях:

Погода в Сулайбии (Кувейт) (7 км)
Погода на Экспериментальной ферме (Кувейт) (26 км)
Погода в Минагише (Кувейт) (31 км)
Погода в Эль-Кувейте (Кувейт) (31 км)
Погода на Метеостанции Jal Aliyah (Кувейт) (33 км)
Погода в Кувейт Сити (Кувейт) (37 км)
Погода в Аль-Шуаиба (Кувейт) (42 км)
Погода на Метеостанции Sabriyah (Кувейт) (51 км)
Погода Остров Файлака (Кувейт) (61 км)
Погода на Метеостанции Mintribah (Кувейт) (63 км)

Пояснения к столбцам:

Ветер - указаны скорость ветра в м/с - средняя за 10 мин, порывы в срок и между сроками (в фигурных скобках) и направление, откуда дует ветер: С - северный, СВ - северо-восточный, В - восточный, ЮВ - юго-восточный, Ю - южный, ЮЗ - юго-западный, З - западный, СЗ - северо-западный.
Видимость - горизонтальная дальность видимости в метрах или километрах. При видимости от 1 до 10 км при отсутствии осадков обычно наблюдается дымка, при ухудшении видимости до 1 км и менее - туман. В сухую погоду видимость может ухудшаться дымом, пылью или мглою.
Явления - указаны атмосферные явления, наблюдавшиеся в срок или в последний час перед сроком; фигурными скобками обозначены явления, наблюдавшиеся между сроками (за 1-3 часа до срока); квадратными скобками обозначены град или гололедные отложения с указанием их диаметра в мм.
Облачность - указаны через наклонную черту общая и нижняя облачность в баллах и высота нижней границы облаков в метрах; квадратными скобками обозначены формы облаков: Ci - перистые, Cs - перисто-слоистые, Cc - перисто-кучевые, Ac - высококучевые, As - высокослоистые, Sc - слоисто-кучевые, Ns - слоисто-дождевые, Cu - кучевые, Cb - кучево-дождевые. Подробнее классификацию облаков см. в Атласе облаков (PDF).
T - Температура воздуха - температура, измеренная на высоте 2 м над землей.
Td - Температура точки росы - температура, при понижении до которой содержащийся в воздухе водяной пар достигнет насыщения.
f - Относительная влажность воздуха - влажноcть воздуха, измеренная на высоте 2 м над землей.
Te - Эффективная температура - температура, которую ощущает одетый по сезону человек в тени. Характеристика душности погоды. При расчете учитывается влияние влажности воздуха и скорости ветра на теплоощущения человека.
Tes - Эффективная температура на солнце - температура, которую ощущает человек, с поправкой на солнечный нагрев. Характеристика знойности погоды. Зависит от высоты солнца над горизонтом, облачности и скорости ветра. Ночью, в пасмурную погоду, а также при ветре 12 м/с и более поправка равна нулю.
P - Атмосферное давление - приведенное к уровню моря атмосферное давление.
Po - Атмосферное давление - измеренное на уровне метеостанции атмосферное давление.
Tmin - Минимальная температура - минимум температуры воздуха на высоте 2 м над землей.
Tmax - Максимальная температура - максимум температуры воздуха на высоте 2 м над землей.
R - Количество осадков - Количество выпавших осадков за период времени, мм. При наведении курсора мыши на число - период времени, за который выпало указанное количество осадков.
R24 - Количество осадков - Количество выпавших осадков за 24 часа, мм.
S - Снежный покров - Высота снежного покрова, см. При наведении курсора мыши на число - состояние снежного покрова и степень покрытия местности в баллах.